STARLINK-31000, 58488

Orbit data source: Space-Track

STARLINK-31000, 58488 is a payload satellite owned by SpaceX/Seattle (US) in LEO that was launched on Sun, 03 Dec 2023 UTC via an FALCON 9 launch vehicle from the Air Force Eastern Test Range (AFETR). Payload-class satellites include a variety of spacecraft equipped with specific instruments for various scientific and technological missions. These include communications satellites like Starlink; space stations such as the ISS; scientific satellites like the Hubble; Earth observation satellites from companies like Planet Labs, Umbra, and HawkEye 360; GPS; miniature CubeSats for education and research; and military/defense satellites.

Loading next visibility...
Identifier
58488, 2023-186R
Orbit
LEO
Country
Flag of USUS
Related business
Manufacturer
SpaceX/Seattle
Mission
Operational Commercial Communications
Bus & Motor
STARLINK V2M, Unknown motor
Mass
730 kg wet, ~700 kg dry
Launch date (UTC)
2023-12-03 (3 years ago)
Launch vehicle
FALCON 9
Launch site
Air Force Eastern Test Range (AFETR)
Object type
Payload
Rocket body
Debris
Shape & HBR
Box + 2 Pan, 17.7 m
Radar Cross Section
33.884 m², Large (>1 m²)

Expand to show TLE details & history
Last TLE update: 2 days ago

TLE from 2 days ago
0 STARLINK-31000
1 58488U 23186R   26171.39561106  .00000872  00000-0  41184-4 0  9990
2 58488  42.9986 203.6280 0001100 264.7268  95.3458 15.27583115141593
Epoch: 2026-06-20T09:29Z
TLE epoch observation values (Epoch: 2026-06-20T09:29:40.795Z)
Latitude
-0.00003°
Longitude
152.59714°
Altitude
482.885 km
Speed
7.626 km/s
True Right ascension
13h 34m 30s
True Declination
0° 00' 00"
Sunlit
Object was in full shadow at epoch
Visualization orbit readout
Latitude
Unknown
Longitude
Unknown
Altitude
Unknown
Speed
Unknown
Apparent Right ascension
Unknown
Apparent Declination
Unknown
Sunlit
N/A
Visualization observer readout
Local Sidereal Time
21:24:03
Azimuth
Unknown
Elevation
Unknown
Doppler factor
Unknown
Orbital elements
Apogee altitude
485.74 km
Perigee altitude
484.23 km
Semi-major axis
6,863.122 km
Eccentricity
0.00011
Inclination
42.9986°
RAAN
203.628°
Arg. of periapsis
264.7268°
True anomaly
95.35835°
Mean anomaly
95.3458°
Eccentric anomaly
95.35208°
Mean motion
3.81734 °/min
Orbital period
94.31 mins
BSTAR
0.000041184
Loading maneuver chart data...
Computing Atmospheric mass density...
Loading historical data...
Loading historical data...
Loading historical data...
Loading historical data...
Loading historical data...
Loading historical data...
Loading historical data...

Documentation

Showing up to 5 results
|